TimeCDT,TemperatureF,Dew PointF,Humidity,Sea Level PressureIn,VisibilityMPH,Wind Direction,Wind SpeedMPH,Gust SpeedMPH,PrecipitationIn,Events,Conditions,WindDirDegrees,DateUTC
12:52 AM,77.0,61.0,58,29.99,10.0,ESE,8.1,-,N/A,,Clear,120,2013-07-14 05:52:00
1:52 AM,73.0,63.0,71,30.01,10.0,SE,3.5,-,0.00,,Partly Cloudy,130,2013-07-14 06:52:00
2:52 AM,71.1,64.9,81,29.99,10.0,East,4.6,-,0.01,,Clear,80,2013-07-14 07:52:00
3:52 AM,70.0,64.9,84,29.99,10.0,East,4.6,-,N/A,,Partly Cloudy,80,2013-07-14 08:52:00
4:52 AM,69.1,64.9,87,30.00,10.0,Calm,Calm,-,N/A,,Scattered Clouds,0,2013-07-14 09:52:00
5:52 AM,64.9,62.1,90,30.01,10.0,Calm,Calm,-,N/A,,Partly Cloudy,0,2013-07-14 10:52:00
6:52 AM,68.0,62.1,81,30.02,10.0,East,4.6,-,N/A,,Clear,90,2013-07-14 11:52:00
7:52 AM,71.1,62.1,73,30.02,10.0,East,5.8,-,N/A,,Clear,90,2013-07-14 12:52:00
8:52 AM,75.0,63.0,66,30.03,10.0,SE,8.1,-,N/A,,Clear,130,2013-07-14 13:52:00
9:52 AM,80.1,62.1,54,30.02,10.0,SE,10.4,-,N/A,,Clear,130,2013-07-14 14:52:00
10:52 AM,82.9,61.0,47,30.03,10.0,ESE,13.8,-,N/A,,Clear,120,2013-07-14 15:52:00
11:52 AM,87.1,59.0,39,30.03,10.0,SSE,18.4,28.8,N/A,,Clear,160,2013-07-14 16:52:00
12:52 PM,88.0,57.9,36,30.03,10.0,SE,16.1,23.0,N/A,,Scattered Clouds,130,2013-07-14 17:52:00
1:52 PM,89.1,57.9,35,30.02,10.0,ESE,15.0,24.2,N/A,,Clear,110,2013-07-14 18:52:00
2:52 PM,89.1,57.0,34,30.01,10.0,ESE,12.7,27.6,N/A,,Clear,120,2013-07-14 19:52:00
3:52 PM,89.1,57.9,35,30.02,10.0,ESE,12.7,23.0,N/A,,Partly Cloudy,120,2013-07-14 20:52:00
4:52 PM,89.1,57.9,35,30.02,10.0,ESE,13.8,17.3,N/A,,Clear,120,2013-07-14 21:52:00
5:52 PM,88.0,57.9,36,30.02,10.0,East,11.5,-,N/A,,Partly Cloudy,100,2013-07-14 22:52:00
6:52 PM,87.1,54.0,32,30.01,10.0,SE,10.4,-,N/A,,Clear,130,2013-07-14 23:52:00
7:52 PM,82.9,57.9,42,30.03,10.0,East,6.9,-,N/A,,Clear,100,2013-07-15 00:52:00
8:52 PM,78.1,57.9,50,30.05,10.0,East,5.8,-,N/A,,Clear,80,2013-07-15 01:52:00
9:52 PM,73.9,59.0,59,30.07,10.0,ENE,5.8,-,N/A,,Clear,70,2013-07-15 02:52:00
10:52 PM,73.9,57.9,57,30.09,10.0,ENE,6.9,-,N/A,,Clear,70,2013-07-15 03:52:00
11:52 PM,73.9,57.9,57,30.10,10.0,ENE,5.8,-,N/A,,Clear,60,2013-07-15 04:52:00